Torna al catalogo

CZ-6A DEB

AttivoPO
NORAD 60766·DEBRIS·🇨🇳 China

Lanciato Aug 6, 2024 da Taiyuan Satellite Launch Center

Loading…

Prossimi Passaggi (prossime 24 ore)

TLE

AggiornatoSource: Space-Track

Epoca: Sep 14, 2026, 10:58 UTC

1 60766U 24140ER  26257.45748557  .00004940  00000-0  84778-3 0  9997
2 60766  89.0401 263.1276 0080939 295.8154  63.4728 14.66426056111327

Traccia CZ-6A DEB in tempo reale con AllMySat

Download on the App Store